Погода в Ильичёвке

Россия / Омская область     55°03′00″N   72°01′42″E
темп.,
°C
ветер,
м/с
пор.,
м/с
влажн.,
%
обл.,
%
осадки,
мм/ч
давл.,
гПа
погр.,
м
17 апреля, сб
сб1700:00+3св510815 0.0 1025470
03:000ссв48885 0.0 1026328
06:00−1ссв36855 0.0 1027254
09:00+1св23615 0.0 1028549
12:00+4ссз11440 0.0 1027881
15:00+6зюз33360 0.0 10251240
18:00+7зюз46380 0.0 10231529
21:00+5юз34617 0.0 102145
18 апреля, вс
вс1800:00+4юз367220 0.0 102098
03:00+2юз48796 0.0 1017138
06:00+2зюз41280100 0.0 1015218
09:00+5зюз6136878 0.0 1012548
12:00+9з91350100 0.1 10101890
15:00+4сз11155595 0.4 10131402
18:000ссз11145359 0.4 10181565
21:00−3с813523 0.0 10231318
19 апреля, пн
пн1900:00−5с712503 0.0 10261252
03:00−7с79485 0.0 10281128
06:00−8с68485 0.0 10311059
09:00−6с674156 0.0 10321326
12:00−4с6733100 0.0 10331739
15:00−2с6729100 0.0 10332037
18:00−2с6730100 0.0 10332157
21:00−4с35425 0.0 1034155
20 апреля, вт
вт2000:00−4с24465 0.0 1035112
03:00−4ссз12460 0.0 103541
06:00−5з22465 0.0 103555
09:00−2з46335 0.0 10341049
12:00+1зсз57275 0.0 10321518
15:00+4з792953 0.0 10291733
18:00+5з7113935 0.0 10271731
21:00+3з61350100 0.0 1026409
21 апреля, ср
ср2100:00+2з71557100 0.0 1024459
03:00+1з71566100 0.0 1022374
06:00+1зсз61473100 0.0 1022398
09:00+3ссз7118294 0.1 1023923
12:00+5ссз7115891 0.1 10241550
15:00+6с8114343 0.0 10261801
18:00+5ссв8114058 0.0 10291996
21:00+2ссв611572 0.0 1033841